Flag for USA

Past Weather in Boulder, Colorado, USA — Yesterday and Last 2 Weeks

Now
91 °F

Scattered clouds.


Feels Like: 87 °F
Forecast: 90 / 59 °F
Wind: 7 mph from East

Location: Broomfield / Jeffco

Current Time: Jul 2, 2020 at 2:06:06 pm

Latest Report: Jul 2, 2020 at 12:55 pm


Visibility: 10 mi

Pressure: 30.11 "Hg (25.12 "Hg at 1623m altitude)

Humidity: 12%

Dew Point: 32 °F

Location of BoulderLocation

Past Weather in Boulder — Graph

°F

Boulder Temperature Yesterday

Maximum temperature yesterday: 86 °F (at 3:45 pm)
Minimum temperature yesterday: 52 °F (at 6:30 am)
Average temperature yesterday: 68 °F

High & Low Weather Summary for the Past Weeks

 TemperatureHumidityPressure
High93 °F (Jun 17, 3:47 pm)94% (Jun 19, 4:12 am)30.28 "Hg (Jun 19, 4:12 am)
Low46 °F (Jun 20, 3:54 am)8% (Jun 17, 2:59 pm)29.66 "Hg (Jun 29, 3:30 am)
Average67 °F45%30.04 "Hg
* Reported Jun 17 11:55 am — Jul 2 11:50 am, Boulder. Weather by CustomWeather, © 2020

Note: Actual official high and low records may vary slightly from our data, if they occured in-between our weather recording intervals... More about our weather records

Boulder Weather History for the Previous 24 Hours

Scroll right to see more
 ConditionsComfort  
Time TempWeatherWind HumidityBarometerVisibility
11:50 am
Thu, Jul 2
84 °FPassing clouds.7 mph19%30.14 "Hg10 mi
10:50 am81 °FPassing clouds.6 mph23%30.15 "Hg10 mi
9:45 am73 °FSunny.No wind27%30.15 "Hg10 mi
8:50 am72 °FSunny.5 mph31%30.15 "Hg10 mi
7:55 am66 °FSunny.7 mph37%30.15 "Hg10 mi
6:49 am63 °FSunny.9 mph34%30.12 "Hg10 mi
6:31 am61 °FSunny.6 mph36%30.12 "Hg10 mi
6:13 am59 °FSunny.6 mph42%30.11 "Hg10 mi
5:54 am61 °FSunny.7 mph39%30.10 "Hg10 mi
5:30 am61 °FClear.12 mph39%30.09 "Hg10 mi
5:12 am59 °FClear.8 mph36%30.09 "Hg10 mi
4:49 am61 °FClear.9 mph39%30.08 "Hg10 mi
4:31 am61 °FClear.3 mph39%30.07 "Hg10 mi
4:13 am64 °FClear.6 mph32%30.07 "Hg10 mi
3:49 am64 °FClear.6 mph32%30.08 "Hg10 mi
3:30 am66 °FClear.No wind30%30.07 "Hg10 mi
3:12 am64 °FClear.No wind32%30.07 "Hg10 mi
2:49 am64 °FClear.6 mph32%30.07 "Hg10 mi
2:30 am64 °FClear.6 mph32%30.07 "Hg10 mi
2:12 am68 °FClear.3 mph28%30.08 "Hg10 mi
1:49 am64 °FClear.No wind32%30.08 "Hg10 mi
1:31 am64 °FClear.6 mph32%30.08 "Hg10 mi
1:12 am68 °FClear.7 mph28%30.07 "Hg10 mi
12:49 am70 °FClear.6 mph29%30.07 "Hg10 mi
12:32 am72 °FClear.12 mph23%30.07 "Hg10 mi
12:14 am73 °FClear.10 mph22%30.07 "Hg10 mi
11:48 pm
Wed, Jul 1
75 °FClear.15 mph21%30.07 "Hg10 mi
11:30 pm73 °FClear.16 mph22%30.07 "Hg10 mi
11:12 pm73 °FClear.14 mph22%30.07 "Hg10 mi
9:45 pm75 °FPassing clouds.5 mph19%30.04 "Hg10 mi
8:45 pm79 °FPassing clouds.8 mph16%30.01 "Hg10 mi
7:48 pm82 °FPassing clouds.10 mph16%30.00 "Hg10 mi
6:45 pm84 °FPassing clouds.13 mph14%29.99 "Hg10 mi
4:45 pm86 °FPassing clouds.12 mph13%30.00 "Hg10 mi
3:45 pm86 °FPassing clouds.13 mph13%30.02 "Hg10 mi
2:45 pm84 °FPassing clouds.6 mph13%30.04 "Hg10 mi
Weather by CustomWeather, © 2020

See weather overview